| time (UTC) | temp C | wind direction | speed KPH | gust KPH | rain 1hr cm | rain 24hr cm | rain mn cm | humidity % | barometer mb |
| 20260502205556 | 18 | 172 | 8.0 | 16.1 | 0.00 | 0.00 | 0.00 | 40 | 1017.8 |
| 20260502205013 | 18 | 144 | 8.0 | 17.7 | 0.00 | 0.00 | 0.00 | 40 | 1017.8 |
| 20260502204533 | 18 | 142 | 6.4 | 17.7 | 0.00 | 0.00 | 0.00 | 40 | 1017.8 |
| 20260502204052 | 18 | 144 | 8.0 | 17.7 | 0.00 | 0.00 | 0.00 | 40 | 1017.8 |
| 20260502203509 | 18 | 139 | 9.7 | 19.3 | 0.00 | 0.00 | 0.00 | 40 | 1017.8 |
| 20260502203049 | 18 | 142 | 9.7 | 17.7 | 0.00 | 0.00 | 0.00 | 40 | 1017.9 |
| 20260502202557 | 18 | 152 | 9.7 | 16.1 | 0.00 | 0.00 | 0.00 | 40 | 1017.9 |
| 20260502202014 | 18 | 153 | 8.0 | 16.1 | 0.00 | 0.00 | 0.00 | 40 | 1018.0 |
| 20260502201539 | 18 | 110 | 8.0 | 14.5 | 0.00 | 0.00 | 0.00 | 39 | 1017.9 |
| 20260502201052 | 18 | 146 | 8.0 | 12.9 | 0.00 | 0.00 | 0.00 | 39 | 1018.1 |
| 20260502200507 | 18 | 153 | 6.4 | 12.9 | 0.00 | 0.00 | 0.00 | 39 | 1018.0 |
| 20260502200033 | 19 | 143 | 8.0 | 12.9 | 0.00 | 0.00 | 0.00 | 38 | 1018.0 |
| 20260502195553 | 19 | 179 | 8.0 | 12.9 | 0.00 | 0.00 | 0.00 | 38 | 1017.9 |
| 20260502195007 | 19 | 145 | 6.4 | 12.9 | 0.00 | 0.00 | 0.00 | 38 | 1018.1 |
| 20260502194536 | 19 | 157 | 6.4 | 12.9 | 0.00 | 0.00 | 0.00 | 37 | 1018.0 |
| 20260502194044 | 19 | 121 | 6.4 | 14.5 | 0.00 | 0.00 | 0.00 | 37 | 1018.1 |
| 20260502193510 | 20 | 128 | 8.0 | 16.1 | 0.00 | 0.00 | 0.00 | 37 | 1018.1 |
| 20260502193032 | 20 | 157 | 9.7 | 16.1 | 0.00 | 0.00 | 0.00 | 37 | 1018.1 |
| 20260502192540 | 20 | 149 | 9.7 | 16.1 | 0.00 | 0.00 | 0.00 | 37 | 1018.2 |
| 20260502192100 | 20 | 162 | 8.0 | 14.5 | 0.00 | 0.00 | 0.00 | 37 | 1018.0 |
| 20260502191535 | 20 | 155 | 9.7 | 14.5 | 0.00 | 0.00 | 0.00 | 36 | 1018.1 |
| 20260502191048 | 20 | 159 | 4.8 | 12.9 | 0.00 | 0.00 | 0.00 | 37 | 1018.1 |
| 20260502190602 | 20 | 119 | 4.8 | 12.9 | 0.00 | 0.00 | 0.00 | 36 | 1018.1 |
| 20260502190021 | 20 | 121 | 8.0 | 12.9 | 0.00 | 0.00 | 0.00 | 36 | 1018.1 |
| 20260502185546 | 20 | 155 | 8.0 | 14.5 | 0.00 | 0.00 | 0.00 | 36 | 1018.1 |
| 20260502185003 | 20 | 152 | 8.0 | 16.1 | 0.00 | 0.00 | 0.00 | 36 | 1018.1 |
| 20260502184538 | 20 | 135 | 6.4 | 16.1 | 0.00 | 0.00 | 0.00 | 36 | 1018.1 |
| 20260502184051 | 20 | 186 | 8.0 | 14.5 | 0.00 | 0.00 | 0.00 | 35 | 1018.1 |
| 20260502183522 | 20 | 187 | 6.4 | 12.9 | 0.00 | 0.00 | 0.00 | 34 | 1018.0 |
| 20260502183035 | 20 | 155 | 4.8 | 11.3 | 0.00 | 0.00 | 0.00 | 34 | 1018.0 |
| 20260502182545 | 21 | 136 | 3.2 | 8.0 | 0.00 | 0.00 | 0.00 | 34 | 1018.0 |
| 20260502182002 | 21 | 222 | 0.0 | 0.0 | 0.00 | 0.00 | 0.00 | 33 | 1017.9 |
| 20260502181521 | 21 | 222 | 0.0 | 0.0 | 0.00 | 0.00 | 0.00 | 32 | 1017.7 |
| 20260502181050 | 22 | 222 | 0.0 | 4.8 | 0.00 | 0.00 | 0.00 | 31 | 1017.9 |
| 20260502180507 | 22 | 222 | 0.0 | 4.8 | 0.00 | 0.00 | 0.00 | 29 | 1017.8 |
| 20260502164048 | 25 | 265 | 4.8 | 11.3 | 0.00 | 0.00 | 0.00 | 26 | 1018.1 |
| 20260502163511 | 25 | 268 | 1.6 | 11.3 | 0.00 | 0.00 | 0.00 | 25 | 1018.1 |
| 20260502163044 | 25 | 229 | 4.8 | 11.3 | 0.00 | 0.00 | 0.00 | 26 | 1018.2 |
| 20260502162548 | 26 | 196 | 3.2 | 9.7 | 0.00 | 0.00 | 0.00 | 24 | 1018.3 |
| 20260502162001 | 26 | 190 | 3.2 | 9.7 | 0.00 | 0.00 | 0.00 | 25 | 1018.3 |
| 20260502161530 | 26 | 274 | 4.8 | 12.9 | 0.00 | 0.00 | 0.00 | 25 | 1018.3 |
| 20260502161049 | 26 | 205 | 4.8 | 14.5 | 0.00 | 0.00 | 0.00 | 24 | 1018.4 |
| 20260502160518 | 26 | 262 | 4.8 | 14.5 | 0.00 | 0.00 | 0.00 | 25 | 1018.5 |
| 20260502152030 | 26 | 136 | 6.4 | 14.5 | 0.00 | 0.00 | 0.00 | 25 | 1019.2 |
| 20260502151550 | 26 | 240 | 6.4 | 14.5 | 0.00 | 0.00 | 0.00 | 24 | 1019.2 |
| 20260502151058 | 26 | 277 | 1.6 | 8.0 | 0.00 | 0.00 | 0.00 | 24 | 1019.3 |
| 20260502150516 | 26 | 213 | 3.2 | 16.1 | 0.00 | 0.00 | 0.00 | 23 | 1019.4 |
| 20260502130529 | 25 | 181 | 6.4 | 16.1 | 0.00 | 0.00 | 0.00 | 23 | 1021.0 |
| 20260502123528 | 25 | 197 | 8.0 | 17.7 | 0.00 | 0.00 | 0.00 | 25 | 1021.3 |
| 20260502123057 | 25 | 266 | 4.8 | 17.7 | 0.00 | 0.00 | 0.00 | 25 | 1021.3 |
| 20260502122504 | 25 | 257 | 8.0 | 16.1 | 0.00 | 0.00 | 0.00 | 25 | 1021.4 |
| 20260502122034 | 25 | 226 | 3.2 | 12.9 | 0.00 | 0.00 | 0.00 | 24 | 1021.5 |
| 20260502121558 | 25 | 181 | 3.2 | 19.3 | 0.00 | 0.00 | 0.00 | 24 | 1021.5 |
| 20260502121010 | 25 | 102 | 9.7 | 19.3 | 0.00 | 0.00 | 0.00 | 24 | 1021.6 |
| 20260502120529 | 25 | 188 | 4.8 | 11.3 | 0.00 | 0.00 | 0.00 | 25 | 1021.5 |
| 20260502115505 | 25 | 334 | 3.2 | 12.9 | 0.00 | 0.00 | 0.00 | 26 | 1021.7 |
| 20260502115038 | 25 | 250 | 3.2 | 14.5 | 0.00 | 0.00 | 0.00 | 25 | 1021.8 |
| 20260502114555 | 25 | 107 | 6.4 | 14.5 | 0.00 | 0.00 | 0.00 | 25 | 1021.8 |
| 20260502114020 | 24 | 164 | 0.0 | 17.7 | 0.00 | 0.00 | 0.00 | 25 | 1021.9 |
| 20260502113542 | 25 | 209 | 8.0 | 19.3 | 0.00 | 0.00 | 0.00 | 26 | 1022.1 |
| 20260502113005 | 25 | 147 | 9.7 | 19.3 | 0.00 | 0.00 | 0.00 | 26 | 1022.1 |
| 20260502112525 | 25 | 157 | 3.2 | 17.7 | 0.00 | 0.00 | 0.00 | 27 | 1022.2 |
| 20260502112043 | 25 | 107 | 3.2 | 12.9 | 0.00 | 0.00 | 0.00 | 26 | 1022.2 |
| 20260502111508 | 25 | 133 | 4.8 | 12.9 | 0.00 | 0.00 | 0.00 | 25 | 1022.4 |
| 20260502111028 | 25 | 269 | 6.4 | 14.5 | 0.00 | 0.00 | 0.00 | 25 | 1022.4 |
| 20260502110545 | 24 | 198 | 6.4 | 16.1 | 0.00 | 0.00 | 0.00 | 26 | 1022.5 |
| 20260502110106 | 24 | 252 | 6.4 | 19.3 | 0.00 | 0.00 | 0.00 | 27 | 1022.5 |
| 20260502105529 | 25 | 232 | 6.4 | 19.3 | 0.00 | 0.00 | 0.00 | 25 | 1022.7 |
| 20260502105049 | 25 | 134 | 6.4 | 14.5 | 0.00 | 0.00 | 0.00 | 26 | 1022.7 |
| 20260502104515 | 24 | 231 | 6.4 | 14.5 | 0.00 | 0.00 | 0.00 | 26 | 1022.7 |
| 20260502104033 | 24 | 172 | 6.4 | 17.7 | 0.00 | 0.00 | 0.00 | 26 | 1022.8 |
| 20260502103552 | 24 | 298 | 3.2 | 17.7 | 0.00 | 0.00 | 0.00 | 27 | 1022.8 |
| 20260502103010 | 24 | 168 | 4.8 | 14.5 | 0.00 | 0.00 | 0.00 | 27 | 1022.9 |
| 20260502102529 | 23 | 253 | 8.0 | 16.1 | 0.00 | 0.00 | 0.00 | 26 | 1023.0 |
| 20260502102049 | 23 | 234 | 1.6 | 14.5 | 0.00 | 0.00 | 0.00 | 26 | 1023.1 |
| 20260502101505 | 24 | 113 | 4.8 | 14.5 | 0.00 | 0.00 | 0.00 | 27 | 1023.2 |
| 20260502101036 | 24 | 129 | 1.6 | 12.9 | 0.00 | 0.00 | 0.00 | 27 | 1023.1 |
| 20260502100555 | 24 | 186 | 4.8 | 12.9 | 0.00 | 0.00 | 0.00 | 27 | 1023.3 |
| 20260502091531 | 22 | 165 | 0.0 | 14.5 | 0.00 | 0.00 | 0.00 | 30 | 1024.0 |
| 20260502091050 | 22 | 134 | 1.6 | 8.0 | 0.00 | 0.00 | 0.00 | 27 | 1024.1 |
| 20260502090515 | 22 | 115 | 3.2 | 16.1 | 0.00 | 0.00 | 0.00 | 28 | 1024.0 |
| 20260502071102 | 20 | 190 | 4.8 | 9.7 | 0.00 | 0.00 | 0.00 | 37 | 1024.5 |
| 20260502070522 | 20 | 190 | 3.2 | 11.3 | 0.00 | 0.00 | 0.00 | 38 | 1024.6 |
| 20260502070047 | 20 | 154 | 1.6 | 12.9 | 0.00 | 0.00 | 0.00 | 37 | 1024.5 |
| 20260502065554 | 19 | 190 | 3.2 | 12.9 | 0.00 | 0.00 | 0.00 | 39 | 1024.5 |
| 20260502065011 | 19 | 290 | 0.0 | 9.7 | 0.00 | 0.00 | 0.00 | 39 | 1024.6 |
| 20260502064539 | 19 | 172 | 1.6 | 11.3 | 0.00 | 0.00 | 0.00 | 39 | 1024.6 |
| 20260502064050 | 19 | 139 | 3.2 | 9.7 | 0.00 | 0.00 | 0.00 | 40 | 1024.7 |
| 20260502063518 | 19 | 136 | 0.0 | 3.2 | 0.00 | 0.00 | 0.00 | 46 | 1024.6 |
| 20260502063040 | 18 | 113 | 0.0 | 0.0 | 0.00 | 0.00 | 0.00 | 49 | 1024.7 |
| 20260502062556 | 18 | 113 | 0.0 | 0.0 | 0.00 | 0.00 | 0.00 | 50 | 1024.8 |
| 20260502062015 | 17 | 113 | 0.0 | 0.0 | 0.00 | 0.00 | 0.00 | 51 | 1024.9 |
| 20260502061530 | 17 | 113 | 0.0 | 0.0 | 0.00 | 0.00 | 0.00 | 52 | 1025.0 |
| 20260502061048 | 16 | 113 | 0.0 | 0.0 | 0.00 | 0.00 | 0.00 | 54 | 1024.9 |
| 20260502060512 | 16 | 113 | 0.0 | 0.0 | 0.00 | 0.00 | 0.00 | 55 | 1024.9 |
| 20260502060032 | 15 | 113 | 0.0 | 0.0 | 0.00 | 0.00 | 0.00 | 55 | 1024.9 |
| 20260502055556 | 15 | 113 | 0.0 | 0.0 | 0.00 | 0.00 | 0.00 | 56 | 1024.8 |
| 20260502055009 | 14 | 113 | 0.0 | 0.0 | 0.00 | 0.00 | 0.00 | 60 | 1024.8 |
| 20260502054538 | 13 | 113 | 0.0 | 0.0 | 0.00 | 0.00 | 0.00 | 61 | 1024.8 |
| 20260502054055 | 13 | 113 | 0.0 | 0.0 | 0.00 | 0.00 | 0.00 | 62 | 1024.9 |
| 20260502053512 | 12 | 113 | 0.0 | 0.0 | 0.00 | 0.00 | 0.00 | 65 | 1024.9 |
| 20260502053032 | 11 | 113 | 0.0 | 0.0 | 0.00 | 0.00 | 0.00 | 66 | 1024.7 |
| 20260502052555 | 11 | 113 | 0.0 | 0.0 | 0.00 | 0.00 | 0.00 | 69 | 1024.7 |
| 20260502052018 | 10 | 113 | 0.0 | 0.0 | 0.00 | 0.00 | 0.00 | 71 | 1024.7 |
| 20260502051537 | 8 | 113 | 0.0 | 0.0 | 0.00 | 0.00 | 0.00 | 73 | 1024.7 |
| 20260502051054 | 8 | 113 | 0.0 | 0.0 | 0.00 | 0.00 | 0.00 | 75 | 1024.7 |
| 20260502050514 | 7 | 113 | 0.0 | 0.0 | 0.00 | 0.00 | 0.00 | 74 | 1024.6 |
| 20260502050036 | 7 | 113 | 0.0 | 0.0 | 0.00 | 0.00 | 0.00 | 75 | 1024.7 |
| 20260502045552 | 7 | 113 | 0.0 | 0.0 | 0.00 | 0.00 | 0.00 | 76 | 1024.7 |
| 20260502045007 | 6 | 113 | 0.0 | 0.0 | 0.00 | 0.00 | 0.00 | 76 | 1024.6 |
| 20260502044526 | 6 | 113 | 0.0 | 0.0 | 0.00 | 0.00 | 0.00 | 76 | 1024.6 |
| 20260502044046 | 6 | 113 | 0.0 | 1.6 | 0.00 | 0.00 | 0.00 | 76 | 1024.6 |
| 20260502043505 | 6 | 113 | 0.0 | 1.6 | 0.00 | 0.00 | 0.00 | 76 | 1024.7 |
| 20260502043036 | 6 | 113 | 0.0 | 0.0 | 0.00 | 0.00 | 0.00 | 76 | 1024.6 |
| 20260502042553 | 6 | 113 | 0.0 | 0.0 | 0.00 | 0.00 | 0.00 | 77 | 1024.6 |
| 20260502042021 | 5 | 113 | 0.0 | 0.0 | 0.00 | 0.00 | 0.00 | 77 | 1024.6 |
| 20260502041545 | 5 | 113 | 0.0 | 4.8 | 0.00 | 0.00 | 0.00 | 77 | 1024.5 |
| 20260502041006 | 5 | 113 | 0.0 | 4.8 | 0.00 | 0.00 | 0.00 | 76 | 1024.5 |
| 20260502040524 | 5 | 111 | 0.0 | 0.0 | 0.00 | 0.00 | 0.00 | 76 | 1024.5 |
| 20260502040035 | 5 | 111 | 0.0 | 0.0 | 0.00 | 0.00 | 0.00 | 76 | 1024.6 |
| 20260502035555 | 5 | 111 | 0.0 | 0.0 | 0.00 | 0.00 | 0.00 | 76 | 1024.6 |
| 20260502035020 | 5 | 111 | 0.0 | 0.0 | 0.00 | 0.00 | 0.00 | 76 | 1024.5 |
| 20260502034540 | 5 | 111 | 0.0 | 0.0 | 0.00 | 0.00 | 0.00 | 76 | 1024.6 |
| 20260502034100 | 5 | 111 | 0.0 | 0.0 | 0.00 | 0.00 | 0.00 | 76 | 1024.6 |
| 20260502033518 | 5 | 111 | 0.0 | 0.0 | 0.00 | 0.00 | 0.00 | 76 | 1024.7 |
| 20260502033039 | 5 | 111 | 0.0 | 0.0 | 0.00 | 0.00 | 0.00 | 76 | 1024.6 |
| 20260502032555 | 6 | 111 | 0.0 | 0.0 | 0.00 | 0.00 | 0.00 | 76 | 1024.7 |
| 20260502032019 | 6 | 111 | 0.0 | 0.0 | 0.00 | 0.00 | 0.00 | 75 | 1024.7 |
| 20260502031539 | 6 | 111 | 0.0 | 0.0 | 0.00 | 0.00 | 0.00 | 75 | 1024.7 |
| 20260502031058 | 6 | 111 | 0.0 | 0.0 | 0.00 | 0.00 | 0.00 | 75 | 1024.7 |
| 20260502030512 | 6 | 111 | 0.0 | 0.0 | 0.00 | 0.00 | 0.00 | 75 | 1024.8 |
| 20260502030041 | 6 | 111 | 0.0 | 0.0 | 0.00 | 0.00 | 0.00 | 75 | 1024.8 |
| 20260502025600 | 6 | 111 | 0.0 | 0.0 | 0.00 | 0.00 | 0.00 | 74 | 1024.8 |
| 20260502025024 | 6 | 111 | 0.0 | 0.0 | 0.00 | 0.00 | 0.00 | 74 | 1024.8 |
| 20260502024544 | 6 | 111 | 0.0 | 0.0 | 0.00 | 0.00 | 0.00 | 74 | 1024.9 |
| 20260502024011 | 6 | 111 | 0.0 | 0.0 | 0.00 | 0.00 | 0.00 | 74 | 1024.9 |
| 20260502023532 | 6 | 111 | 0.0 | 0.0 | 0.00 | 0.00 | 0.00 | 74 | 1024.9 |
| 20260502023047 | 6 | 111 | 0.0 | 0.0 | 0.00 | 0.00 | 0.00 | 74 | 1024.9 |
| 20260502022503 | 6 | 111 | 0.0 | 0.0 | 0.00 | 0.00 | 0.00 | 74 | 1024.9 |
| 20260502022037 | 6 | 111 | 0.0 | 0.0 | 0.00 | 0.00 | 0.00 | 74 | 1024.9 |
| 20260502021553 | 6 | 111 | 0.0 | 0.0 | 0.00 | 0.00 | 0.00 | 74 | 1024.9 |
| 20260502021019 | 6 | 111 | 0.0 | 0.0 | 0.00 | 0.00 | 0.00 | 74 | 1025.0 |
| 20260502020539 | 6 | 111 | 0.0 | 0.0 | 0.00 | 0.00 | 0.00 | 74 | 1024.9 |
| 20260502020058 | 7 | 111 | 0.0 | 0.0 | 0.00 | 0.00 | 0.00 | 73 | 1025.0 |
| 20260502015514 | 7 | 111 | 0.0 | 0.0 | 0.00 | 0.00 | 0.00 | 73 | 1025.0 |
| 20260502015031 | 7 | 111 | 0.0 | 0.0 | 0.00 | 0.00 | 0.00 | 73 | 1025.0 |
| 20260502014556 | 7 | 111 | 0.0 | 0.0 | 0.00 | 0.00 | 0.00 | 72 | 1025.1 |
| 20260502014008 | 7 | 107 | 0.0 | 0.0 | 0.00 | 0.00 | 0.00 | 72 | 1025.1 |
| 20260502013526 | 7 | 107 | 0.0 | 0.0 | 0.00 | 0.00 | 0.00 | 72 | 1025.0 |
| 20260502013048 | 7 | 107 | 0.0 | 0.0 | 0.00 | 0.00 | 0.00 | 71 | 1025.1 |
| 20260502012502 | 7 | 226 | 0.0 | 0.0 | 0.00 | 0.00 | 0.00 | 71 | 1025.1 |
| 20260502012027 | 7 | 226 | 0.0 | 0.0 | 0.00 | 0.00 | 0.00 | 71 | 1025.1 |
| 20260502011550 | 7 | 226 | 0.0 | 0.0 | 0.00 | 0.00 | 0.00 | 70 | 1025.1 |
| 20260502011003 | 7 | 226 | 0.0 | 0.0 | 0.00 | 0.00 | 0.00 | 69 | 1025.1 |
| 20260502010523 | 7 | 226 | 0.0 | 0.0 | 0.00 | 0.00 | 0.00 | 69 | 1025.2 |
| 20260502010043 | 7 | 226 | 0.0 | 0.0 | 0.00 | 0.00 | 0.00 | 68 | 1025.2 |
| 20260502005603 | 8 | 226 | 0.0 | 0.0 | 0.00 | 0.00 | 0.00 | 68 | 1025.2 |
| 20260502005018 | 8 | 226 | 0.0 | 4.8 | 0.00 | 0.00 | 0.00 | 68 | 1025.2 |
| 20260502004539 | 8 | 226 | 0.0 | 4.8 | 0.00 | 0.00 | 0.00 | 68 | 1025.2 |
| 20260502004059 | 8 | 226 | 0.0 | 3.2 | 0.00 | 0.00 | 0.00 | 68 | 1025.2 |
| 20260502003522 | 8 | 226 | 0.0 | 0.0 | 0.00 | 0.00 | 0.00 | 68 | 1025.1 |
| 20260502003042 | 8 | 226 | 0.0 | 0.0 | 0.00 | 0.00 | 0.00 | 68 | 1025.2 |
| 20260502002603 | 8 | 226 | 0.0 | 0.0 | 0.00 | 0.00 | 0.00 | 68 | 1025.2 |
| 20260502002017 | 8 | 226 | 0.0 | 0.0 | 0.00 | 0.00 | 0.00 | 68 | 1025.2 |
| 20260502001537 | 8 | 226 | 0.0 | 0.0 | 0.00 | 0.00 | 0.00 | 68 | 1025.3 |
| 20260502001059 | 8 | 226 | 0.0 | 0.0 | 0.00 | 0.00 | 0.00 | 68 | 1025.3 |
| 20260502000521 | 8 | 226 | 0.0 | 3.2 | 0.00 | 0.00 | 0.00 | 68 | 1025.3 |
| 20260502000052 | 8 | 226 | 0.0 | 3.2 | 0.00 | 0.00 | 0.00 | 68 | 1025.3 |
| 20260501235506 | 8 | 226 | 1.6 | 3.2 | 0.00 | 0.00 | 0.00 | 68 | 1025.4 |
| 20260501235026 | 8 | 226 | 0.0 | 0.0 | 0.00 | 0.00 | 0.00 | 68 | 1025.4 |
| 20260501234549 | 8 | 226 | 0.0 | 0.0 | 0.00 | 0.00 | 0.00 | 68 | 1025.4 |
| 20260501234002 | 8 | 226 | 0.0 | 0.0 | 0.00 | 0.00 | 0.00 | 67 | 1025.5 |
| 20260501233522 | 8 | 226 | 0.0 | 0.0 | 0.00 | 0.00 | 0.00 | 68 | 1025.5 |
| 20260501233036 | 8 | 226 | 0.0 | 0.0 | 0.00 | 0.00 | 0.00 | 68 | 1025.5 |
| 20260501232550 | 8 | 225 | 0.0 | 0.0 | 0.00 | 0.00 | 0.00 | 67 | 1025.5 |
| 20260501232008 | 8 | 278 | 0.0 | 0.0 | 0.00 | 0.00 | 0.00 | 67 | 1025.6 |
| 20260501231531 | 9 | 278 | 0.0 | 0.0 | 0.00 | 0.00 | 0.00 | 67 | 1025.6 |
| 20260501231051 | 9 | 292 | 0.0 | 0.0 | 0.00 | 0.00 | 0.00 | 67 | 1025.7 |
| 20260501230520 | 9 | 294 | 0.0 | 0.0 | 0.00 | 0.00 | 0.00 | 66 | 1025.7 |
| 20260501230034 | 9 | 344 | 0.0 | 0.0 | 0.00 | 0.00 | 0.00 | 66 | 1025.7 |
| 20260501225548 | 9 | 344 | 0.0 | 0.0 | 0.00 | 0.00 | 0.00 | 66 | 1025.7 |
| 20260501225004 | 9 | 346 | 0.0 | 0.0 | 0.00 | 0.00 | 0.00 | 65 | 1025.7 |
| 20260501224534 | 10 | 346 | 0.0 | 0.0 | 0.00 | 0.00 | 0.00 | 65 | 1025.7 |
| 20260501224054 | 10 | 256 | 0.0 | 0.0 | 0.00 | 0.00 | 0.00 | 63 | 1025.6 |
| 20260501223510 | 10 | 256 | 0.0 | 0.0 | 0.00 | 0.00 | 0.00 | 64 | 1025.7 |
| 20260501223029 | 10 | 256 | 0.0 | 0.0 | 0.00 | 0.00 | 0.00 | 63 | 1025.7 |
| 20260501222548 | 10 | 256 | 0.0 | 0.0 | 0.00 | 0.00 | 0.00 | 63 | 1025.7 |
| 20260501222012 | 10 | 256 | 0.0 | 0.0 | 0.00 | 0.00 | 0.00 | 63 | 1025.7 |
| 20260501221532 | 10 | 256 | 0.0 | 0.0 | 0.00 | 0.00 | 0.00 | 62 | 1025.7 |
| 20260501221051 | 10 | 256 | 0.0 | 0.0 | 0.00 | 0.00 | 0.00 | 62 | 1025.8 |
| 20260501220509 | 10 | 256 | 0.0 | 0.0 | 0.00 | 0.00 | 0.00 | 62 | 1025.8 |
| 20260501220029 | 10 | 256 | 0.0 | 0.0 | 0.00 | 0.00 | 0.00 | 61 | 1025.8 |
| 20260501215548 | 10 | 256 | 0.0 | 0.0 | 0.00 | 0.00 | 0.00 | 61 | 1025.8 |
| 20260501215015 | 10 | 256 | 0.0 | 0.0 | 0.00 | 0.00 | 0.00 | 61 | 1025.8 |
| 20260501214538 | 10 | 256 | 0.0 | 0.0 | 0.00 | 0.00 | 0.00 | 61 | 1025.9 |
| 20260501214052 | 10 | 256 | 0.0 | 0.0 | 0.00 | 0.00 | 0.00 | 60 | 1025.9 |
| 20260501213512 | 11 | 256 | 0.0 | 0.0 | 0.00 | 0.00 | 0.00 | 59 | 1025.9 |
| 20260501213029 | 11 | 256 | 0.0 | 0.0 | 0.00 | 0.00 | 0.00 | 59 | 1026.0 |
| 20260501212549 | 11 | 256 | 0.0 | 0.0 | 0.00 | 0.00 | 0.00 | 58 | 1025.9 |
| 20260501212006 | 11 | 256 | 0.0 | 0.0 | 0.00 | 0.00 | 0.00 | 58 | 1025.8 |
| 20260501211526 | 11 | 256 | 0.0 | 0.0 | 0.00 | 0.00 | 0.00 | 57 | 1025.9 |
| 20260501211044 | 11 | 256 | 0.0 | 0.0 | 0.00 | 0.00 | 0.00 | 56 | 1025.9 |
| 20260501210512 | 11 | 256 | 0.0 | 0.0 | 0.00 | 0.00 | 0.00 | 56 | 1025.8 |
| 20260501210032 | 11 | 256 | 0.0 | 0.0 | 0.00 | 0.00 | 0.00 | 55 | 1025.8 |